Regional Weather Roundup
Issued by NWS

Home | Current Version | Previous Version | Graphics & Text | Print | Product List | Glossary On
Versions: 1 2 3 4 5 6 7 8 9 10 11 12 13 14 15 16 17 18 19 20 21 22 23 24 25 26 27 28 29 30 31 32 33 34 35 36 37 38 39 40 41 42 43 44 45 46 47 48 49 50
000
ASUS43 KBIS 220520
RWRND

NORTH DAKOTA REGIONAL WEATHER ROUNDUP
NATIONAL WEATHER SERVICE BISMARCK ND
1200 AM CDT FRI AUG 22 2014

NOTE: "FAIR" INDICATES FEW OR NO CLOUDS BELOW 12,000 FEET WITH NO
SIGNIFICANT WEATHER AND/OR OBSTRUCTIONS TO VISIBILITY.


NDZ001>003-009>011-017-220600-
NORTHWEST NORTH DAKOTA

CITY           SKY/WX    TMP DP  RH WIND       PRES   REMARKS
WILLISTON      CLOUDY    64  57  78 N8        30.02S
MINOT          CLOUDY    63  60  90 NW7       29.98S
MINOT AFB      CLOUDY    63  63  99 NW7       29.99R
$$

NDZ018>021-031>035-040>046-220600-
SOUTHWEST NORTH DAKOTA

CITY           SKY/WX    TMP DP  RH WIND       PRES   REMARKS
BISMARCK       MOCLDY    67  63  87 W3        29.95S
DICKINSON      HVY RAIN  63  60  90 NE13      30.00F FOG
GARRISON         N/A     65  63  93 N6        29.98S
HETTINGER ARPT HVY RAIN  63  59  87 N15       30.06R FOG
$$

NDZ004>008-012>016-024-026-027-054-220600-
NORTHEAST NORTH DAKOTA

CITY           SKY/WX    TMP DP  RH WIND       PRES   REMARKS
GRAND FORKS    PTCLDY    68  67  96 CALM      29.86S FOG
GRND FRKS AFB  MOCLDY    68  68 100 N7        29.89R
DEVILS LAKE    CLOUDY    66  63  88 N12       29.92S
$$

NDZ022-023-025-028>030-036>039-047>053-220600-
SOUTHEAST NORTH DAKOTA

CITY           SKY/WX    TMP DP  RH WIND       PRES   REMARKS
FARGO          CLEAR     67  65  93 CALM      29.87R
JAMESTOWN      CLEAR     68  65  90 N6        29.91R
$$




USA.gov is the U.S. government's official web portal to all federal, state and local government web resources and services.